Location: Bu�n Treun
(12.1333°N, 108.3167°E)
Time: 12:39:42
(UTC+00:00)

BREEZE-M (TANK) - Pass Details

Date: 13 July 2020
Orbit: 316 x 17583 km, 49.5° (Epoch: 06 August)

Event Time Altitude Azimuth Distance (km) Brightness Sun altitude
Rises 12:08:33 0° 221° (SW) 2,345 5.9 -12.6°
Reaches altitude 10° 12:10:35 10° 223° (SW) 1,249 4.6 -13.0°
Maximum altitude 12:12:48 78° 311° (NW) 329 1.5 -13.5°
Drops below altitude 10° 12:15:27 10° 37° (NE) 1,502 4.6 -14.1°
Sets 12:18:12 0° 39° (NE) 2,964 6.1 -14.7°
